Weather reports worldwide

Advertisment
List/Sylt, Germany (10020): temperature & dewpoint: 14.08.2019 06:00:00 - 20.08.2019 06:00:00 (CEST)List/Sylt, Germany (10020): temperature 5cm & temperature -5cm: 14.08.2019 06:00:00 - 20.08.2019 06:00:00 (CEST)List/Sylt, Germany (10020): temperature -20cm: 14.08.2019 06:00:00 - 20.08.2019 06:00:00 (CEST)List/Sylt, Germany (10020): wind speed & gusts: 14.08.2019 06:00:00 - 20.08.2019 06:00:00 (CEST)List/Sylt, Germany (10020): wind direction: 14.08.2019 06:00:00 - 20.08.2019 06:00:00 (CEST)List/Sylt, Germany (10020): reduced air pressure: 14.08.2019 06:00:00 - 20.08.2019 06:00:00 (CEST)List/Sylt, Germany (10020): visibility: 14.08.2019 06:00:00 - 20.08.2019 06:00:00 (CEST)List/Sylt, Germany (10020): sunshine duration: 14.08.2019 06:00:00 - 20.08.2019 06:00:00 (CEST)List/Sylt, Germany (10020): precipitation: 14.08.2019 06:00:00 - 20.08.2019 06:00:00 (CEST)
Date & Time tt [°C] td [°C] tt 5cm [°C] tt -5cm [°C] tt -20cm [°C] ff [km/h] ff [kn] fx [km/h] fx [kn] dd ppp [hPa] vv [km] sd [min] rr [mm]
20.08.2019 06:00:00 15,0 12,0 13,7 16,0 16,6 21 11 34 19 SW 1016,1 29 0 0,1
20.08.2019 05:00:00 16,2 12,6 14,4 16,0 16,7 30 16 39 21 SW 1015,6 44 0 0,0
20.08.2019 04:00:00 16,2 13,2 14,5 16,1 16,8 16 9 27 14 SSW 1015,6 35 0 0,0
20.08.2019 03:00:00 15,7 13,3 14,0 16,2 16,9 21 12 28 15 SW 1015,6 33 0 0,0
20.08.2019 02:00:00 15,4 13,4 14,1 16,4 17,0 13 7 33 18 SW 1015,4 22 0 0,2
20.08.2019 01:00:00 15,3 11,3 13,7 16,5 17,1 21 11 31 17 W 1015,4 35 0 0,0
20.08.2019 00:00:00 15,6 12,9 14,2 16,6 17,3 21 12 35 19 SW 1015,2 32 0 3,9
19.08.2019 23:00:00 15,7 13,4 14,4 16,9 17,4 17 9 41 22 WSW 1014,9 25 0 0,7
19.08.2019 22:00:00 15,4 13,2 14,5 17,2 17,5 28 15 51 27 WSW 1014,9 6 0 1,7
19.08.2019 21:00:00 16,9 12,3 16,0 17,6 17,6 25 14 41 22 SW 1014,1 30 2 0,0
19.08.2019 20:00:00 17,2 12,2 16,7 18,0 17,7 27 15 40 22 WSW 1013,8 29 10 0,0
19.08.2019 19:00:00 18,2 12,5 19,2 18,5 17,7 31 17 46 25 WSW 1013,5 30 41 0,0
19.08.2019 18:00:00 18,2 12,7 18,8 18,8 17,6 32 17 54 29 SW 1013,2 30 36 0,0
19.08.2019 17:00:00 19,1 12,2 21,5 18,9 17,4 36 20 58 32 WSW 1012,9 29 50 0,0
19.08.2019 16:00:00 18,9 12,3 21,0 18,9 17,2 40 21 59 32 WSW 1012,5 29 54 0,0
19.08.2019 15:00:00 18,5 12,6 20,1 18,6 16,9 40 22 59 32 WSW 1011,9 29 50 0,0
19.08.2019 14:00:00 19,1 13,3 20,7 17,9 16,8 40 22 57 31 WSW 1011,1 31 17 0,0
19.08.2019 13:00:00 18,0 13,2 18,1 17,6 16,6 35 19 57 31 WSW 1010,3 32 31 0,1
19.08.2019 12:00:00 15,0 10,0 13,3 17,1 16,4 32 17 57 31 WSW 1009,9 11 31 1,3
19.08.2019 11:00:00 17,7 13,0 20,1 16,5 16,4 41 22 54 29 SW 1009,1 35 11 0,0
19.08.2019 10:00:00 15,8 11,5 14,9 16,4 16,3 49 26 65 35 SW 1008,4 22 39 0,0
19.08.2019 09:00:00 16,9 12,8 18,5 16,0 16,3 26 14 39 21 SSW 1008,1 35 20 0,0
19.08.2019 08:00:00 16,0 13,1 14,8 15,9 16,3 29 16 43 23 SSW 1008,0 31 0 0,0
19.08.2019 07:00:00 15,5 12,5 14,2 15,9 16,4 29 16 58 31 WSW 1007,6 27 0 0,1
19.08.2019 06:00:00 17,1 14,8 16,0 15,8 16,4 30 16 41 22 SW 1007,1 13 0 0,0
19.08.2019 05:00:00 16,9 13,8 15,1 15,7 16,5 26 14 36 19 SW 1006,6 33 0 0,0
19.08.2019 04:00:00 16,4 13,0 14,8 15,8 16,6 25 13 35 19 SW 1006,5 32 0 0,0
19.08.2019 03:00:00 16,3 12,8 14,6 15,9 16,7 24 13 36 19 SW 1006,8 33 0 0,0
19.08.2019 02:00:00 16,6 12,9 14,8 16,0 16,8 23 13 39 21 WSW 1006,4 34 0 0,0
19.08.2019 01:00:00 15,9 12,6 14,0 16,1 16,9 22 12 31 17 SW 1006,3 31 0 0,0
19.08.2019 00:00:00 15,8 11,6 13,2 16,3 17,1 18 10 37 20 WSW 1006,1 39 0 0,0
18.08.2019 23:00:00 16,6 11,8 14,0 16,6 17,2 27 15 38 20 WSW 1005,9 37 0 0,0
18.08.2019 22:00:00 15,9 13,7 14,2 16,9 17,3 22 12 39 21 WSW 1005,2 32 0 3,1
18.08.2019 21:00:00 16,5 13,0 15,1 17,3 17,4 20 11 34 18 W 1004,7 13 10 0,1
18.08.2019 20:00:00 17,7 12,2 17,1 17,7 17,3 24 13 38 20 WSW 1004,3 37 46 0,0
18.08.2019 19:00:00 18,0 13,6 18,5 17,8 17,3 24 13 39 21 WSW 1003,8 33 4 0,0
18.08.2019 18:00:00 17,7 13,2 18,2 17,8 17,3 28 15 44 24 SW 1003,8 46 6 0,0
18.08.2019 17:00:00 17,2 11,9 18,4 17,7 17,2 36 19 51 28 WSW 1003,3 58 0 0,0
18.08.2019 16:00:00 18,0 14,7 19,5 17,6 17,2 32 17 46 25 SSW 1002,9 28 0 0,0
18.08.2019 15:00:00 17,6 14,1 18,1 17,6 17,1 37 20 52 28 S 1002,7 32 0 0,0
18.08.2019 14:00:00 17,6 13,4 18,5 17,5 17,0 40 22 51 28 S 1002,6 43 0 0,0
18.08.2019 13:00:00 17,6 14,0 18,7 17,5 17,0 39 21 55 30 SSW 1002,9 29 0 0,0
18.08.2019 12:00:00 17,9 15,2 18,5 17,3 16,9 33 18 44 24 S 1002,9 24 0 0,0
18.08.2019 11:00:00 17,8 15,4 18,3 17,1 16,8 24 13 36 19 S 1002,9 23 0 0,0
18.08.2019 10:00:00 17,6 15,3 18,2 16,9 16,8 28 15 38 20 S 1003,1 24 0 0,0
18.08.2019 09:00:00 17,6 15,6 17,6 16,6 16,8 27 14 36 19 S 1003,3 23 0 0,0
18.08.2019 08:00:00 17,7 15,7 17,3 16,4 16,8 23 12 29 16 S 1003,7 26 0 0,0
18.08.2019 07:00:00 17,5 15,1 16,7 16,3 16,8 21 11 29 15 S 1003,9 32 0 0,0
18.08.2019 06:00:00 17,3 15,3 16,3 16,2 16,9 21 11 29 16 S 1003,9 35 0 0,0
18.08.2019 05:00:00 17,3 15,0 15,8 16,2 16,9 17 9 24 13 S 1003,8 34 0 0,0
18.08.2019 04:00:00 17,0 14,1 14,9 16,1 17,0 15 8 19 11 S 1004,6 32 0 0,0
18.08.2019 03:00:00 16,6 13,7 14,3 16,2 17,2 13 7 18 10 SSW 1005,1 31 0 0,0
18.08.2019 02:00:00 16,3 13,4 14,0 16,3 17,3 11 6 16 9 SSW 1004,9 31 0 0,0
18.08.2019 01:00:00 15,5 13,0 13,4 16,5 17,5 14 8 18 10 SW 1005,1 25 0 0,0
18.08.2019 00:00:00 16,1 13,0 13,7 16,8 17,6 13 7 22 12 SW 1004,9 29 0 0,0
17.08.2019 23:00:00 15,7 12,7 13,6 17,1 17,8 15 8 18 10 SW 1005,0 28 0 0,0
17.08.2019 22:00:00 16,8 13,6 14,3 17,5 17,9 14 7 21 11 SSW 1004,6 27 0 0,0
17.08.2019 21:00:00 16,5 12,5 15,0 18,0 18,0 14 8 29 15 WSW 1004,7 30 9 0,0
17.08.2019 20:00:00 18,0 13,3 17,2 18,5 18,0 19 10 36 20 WSW 1004,8 30 60 0,0
17.08.2019 19:00:00 18,6 12,8 19,4 18,8 18,0 31 17 42 23 WSW 1004,8 38 59 0,0
17.08.2019 18:00:00 19,5 14,5 20,7 19,1 17,8 31 17 47 26 WSW 1004,5 34 28 0,0
17.08.2019 17:00:00 19,5 15,9 20,9 19,0 17,7 36 19 48 26 SW 1004,2 38 31 0,0
17.08.2019 16:00:00 19,0 15,5 19,6 18,7 17,5 36 19 51 27 SSW 1003,9 33 52 0,0
17.08.2019 15:00:00 17,7 15,8 18,8 17,8 17,4 27 14 54 29 SSW 1003,8 38 6 4,5
17.08.2019 14:00:00 18,4 16,0 18,3 17,9 17,3 41 22 55 30 SSW 1003,7 29 5 0,0
17.08.2019 13:00:00 17,6 16,4 17,9 17,4 17,3 39 21 61 33 SSW 1003,5 21 0 0,0
17.08.2019 12:00:00 17,5 15,8 17,1 17,3 17,3 38 21 59 32 SSW 1003,3 24 0 0,0
17.08.2019 11:00:00 17,3 15,5 16,8 17,2 17,3 45 24 59 32 SSW 1003,0 20 0 0,0
17.08.2019 10:00:00 16,8 15,3 16,4 17,1 17,3 43 23 62 34 SSW 1003,0 17 0 0,3
17.08.2019 09:00:00 16,6 15,2 16,0 17,1 17,4 44 24 65 35 S 1003,1 10 0 0,3
17.08.2019 08:00:00 16,5 15,3 16,0 17,1 17,4 50 27 64 35 S 1003,4 6 0 1,4
17.08.2019 07:00:00 16,7 15,2 15,9 17,1 17,5 40 22 61 33 S 1003,6 7 0 2,4
17.08.2019 06:00:00 16,8 15,3 15,9 17,2 17,6 47 25 61 33 S 1004,4 5 0 1,8
17.08.2019 05:00:00 16,8 15,0 15,8 17,3 17,6 45 24 60 33 S 1005,1 16 0 1,1
17.08.2019 04:00:00 17,3 14,5 15,8 17,4 17,7 44 24 58 31 S 1005,7 26 0 0,3
17.08.2019 03:00:00 17,5 14,6 16,0 17,5 17,8 39 21 57 31 S 1006,8 11 0 0,3
17.08.2019 02:00:00 18,2 14,9 17,5 17,6 17,8 34 18 45 24 S 1007,7 26 0 0,0
17.08.2019 01:00:00 17,9 14,3 17,4 17,6 17,9 33 18 43 23 SSE 1008,3 39 0 0,0
17.08.2019 00:00:00 17,7 13,9 17,2 17,7 18,0 36 19 46 25 SSE 1009,1 38 0 0,0
16.08.2019 23:00:00 17,7 13,7 17,1 17,9 18,1 33 18 41 22 SSE 1009,9 45 0 0,0
16.08.2019 22:00:00 17,7 13,2 17,0 18,1 18,3 33 18 40 22 SSE 1010,5 47 0 0,0
16.08.2019 21:00:00 17,7 13,5 16,9 18,4 18,4 28 15 37 20 S 1011,1 44 0 0,0
16.08.2019 20:00:00 17,9 12,0 17,5 18,9 18,4 22 12 38 21 SSW 1011,5 47 12 0,0
16.08.2019 19:00:00 18,4 12,5 19,8 19,3 18,4 27 15 39 21 SSW 1011,9 41 6 0,0
16.08.2019 18:00:00 18,1 12,0 20,1 19,9 18,3 27 14 36 19 S 1012,2 47 35 0,0
16.08.2019 17:00:00 18,7 10,9 23,6 20,1 18,2 22 12 31 17 SSW 1012,9 52 35 0,0
16.08.2019 16:00:00 18,9 10,7 24,7 20,0 17,9 21 11 34 18 SW 1013,4 42 30 0,0
16.08.2019 15:00:00 17,9 9,6 21,8 19,8 17,7 20 11 29 16 SW 1013,6 47 35 0,0
16.08.2019 14:00:00 17,7 8,9 21,7 19,4 17,4 21 11 33 18 W 1013,7 49 60 0,0
16.08.2019 13:00:00 18,0 9,0 22,2 18,7 17,1 22 12 37 20 W 1013,7 57 59 0,0
16.08.2019 12:00:00 17,5 8,1 21,0 17,9 17,0 24 13 42 23 W 1013,6 64 52 0,0
16.08.2019 11:00:00 17,1 9,8 20,3 17,2 16,9 30 16 40 22 W 1013,2 45 45 0,0
16.08.2019 10:00:00 17,0 10,2 18,5 16,7 16,9 27 15 39 21 W 1013,1 44 27 0,0
16.08.2019 09:00:00 15,9 11,4 15,8 16,6 16,9 30 16 39 21 W 1012,8 33 0 0,0
16.08.2019 08:00:00 16,6 10,9 16,5 16,5 16,9 24 13 36 19 WNW 1012,0 49 0 0,0
16.08.2019 07:00:00 16,4 11,7 16,0 16,5 17,0 30 16 40 22 NW 1011,5 40 0 0,0
16.08.2019 06:00:00 16,2 13,0 15,8 16,6 17,1 32 17 49 26 NW 1010,7 29 0 0,0
16.08.2019 05:00:00 16,1 14,3 15,5 16,7 17,1 40 21 51 27 WNW 1010,0 23 0 0,0
16.08.2019 04:00:00 16,7 14,0 16,1 16,7 17,2 25 14 41 22 W 1009,8 33 0 0,0
16.08.2019 03:00:00 16,9 13,4 16,3 16,8 17,3 32 18 43 23 W 1009,7 33 0 0,0
16.08.2019 02:00:00 16,8 14,0 15,8 17,0 17,4 24 13 38 21 W 1009,3 37 0 0,0
16.08.2019 01:00:00 17,1 13,5 16,2 17,1 17,4 28 15 39 21 W 1009,2 39 0 0,0
16.08.2019 00:00:00 17,0 14,2 15,8 17,2 17,5 24 13 35 19 W 1009,1 38 0 0,0
15.08.2019 23:00:00 16,8 14,1 15,5 17,3 17,6 19 10 33 18 W 1008,6 40 0 0,2
15.08.2019 22:00:00 17,0 13,6 16,2 17,6 17,7 24 13 41 22 W 1008,1 37 0 0,0
15.08.2019 21:00:00 17,3 14,1 16,8 17,9 17,7 30 16 46 25 W 1007,2 31 0 0,0
15.08.2019 20:00:00 17,3 14,7 17,3 18,2 17,7 34 18 57 31 W 1006,3 31 2 0,0
15.08.2019 19:00:00 17,2 14,6 16,8 18,6 17,6 37 20 55 30 W 1005,3 30 11 0,0
15.08.2019 18:00:00 18,4 16,1 18,5 18,8 17,4 31 17 43 23 W 1005,0 30 7 0,0
15.08.2019 17:00:00 19,2 16,8 20,4 18,5 17,2 25 13 39 21 SW 1004,7 39 25 0,0
15.08.2019 16:00:00 18,7 16,9 19,4 17,9 17,1 24 13 37 20 SW 1004,4 37 1 0,0
15.08.2019 15:00:00 18,0 16,2 18,7 17,5 16,9 29 15 47 25 S 1004,4 27 8 0,0
15.08.2019 14:00:00 17,5 16,2 18,4 17,0 16,9 31 17 41 22 S 1004,5 12 0 0,0
15.08.2019 13:00:00 17,2 15,7 17,3 16,6 16,9 34 18 46 25 S 1004,3 16 0 6,7
15.08.2019 12:00:00 15,8 15,2 15,7 16,6 17,0 32 18 43 23 SSE 1004,5 2,0 0 3,0
15.08.2019 11:00:00 15,6 14,8 15,6 16,6 17,0 29 16 52 28 SSE 1004,9 1,9 0 0,1
15.08.2019 10:00:00 15,0 14,1 14,7 16,5 17,1 37 20 54 29 SSE 1005,3 6 0 0,7
15.08.2019 09:00:00 14,2 13,3 14,0 16,5 17,1 36 19 51 28 SE 1005,7 4,0 0 0,4
15.08.2019 08:00:00 14,3 13,0 13,8 16,6 17,2 34 18 48 26 SE 1006,3 7 0 0,0
15.08.2019 07:00:00 14,5 12,3 13,5 16,7 17,3 31 17 53 29 SE 1007,0 8 0 0,2
15.08.2019 06:00:00 15,1 12,8 14,0 16,8 17,4 35 19 46 25 SSE 1007,6 19 0 0,2
15.08.2019 05:00:00 15,8 13,0 14,6 16,9 17,5 32 17 44 24 S 1008,4 33 0 0,1
15.08.2019 04:00:00 16,1 11,0 13,9 17,0 17,6 35 19 48 26 S 1009,2 37 0 0,1
15.08.2019 03:00:00 17,1 11,8 16,4 17,0 17,7 37 20 46 25 SSE 1009,8 46 0 0,0
15.08.2019 02:00:00 16,1 10,2 15,2 17,2 17,8 24 13 34 18 SSE 1010,9 51 0 0,0
15.08.2019 01:00:00 16,2 10,9 15,2 17,4 17,9 22 12 32 17 SSE 1011,5 52 0 0,0
15.08.2019 00:00:00 16,4 12,0 14,9 17,5 18,0 24 13 32 18 SSE 1012,0 30 0 0,0
14.08.2019 23:00:00 15,9 11,1 13,8 17,7 18,1 12 6 34 18 SSW 1012,4 47 0 0,1
14.08.2019 22:00:00 15,8 10,8 13,9 17,9 18,2 29 16 40 22 SW 1013,0 24 0 0,0
14.08.2019 21:00:00 16,7 11,0 16,1 18,3 18,4 23 12 32 18 SSW 1013,0 52 0 0,0
14.08.2019 20:00:00 16,6 11,0 16,4 18,7 18,4 23 12 36 19 SW 1013,5 62 0 0,0
14.08.2019 19:00:00 16,7 10,5 16,9 19,2 18,5 23 13 42 23 SW 1013,8 58 0 0,0
14.08.2019 18:00:00 17,4 8,6 18,4 19,8 18,4 23 13 36 20 WSW 1014,0 46 22 0,0
14.08.2019 17:00:00 17,9 8,9 21,3 20,3 18,2 25 14 41 22 WSW 1014,3 67 59 0,0
14.08.2019 16:00:00 18,0 8,8 22,5 20,3 17,9 28 15 40 22 WSW 1014,3 74 58 0,0
14.08.2019 15:00:00 18,3 9,9 22,9 20,0 17,6 26 14 41 22 WSW 1014,3 51 59 0,0
14.08.2019 14:00:00 17,9 8,8 22,8 19,2 17,3 24 13 40 21 WSW 1014,5 72 58 0,0
14.08.2019 13:00:00 17,5 9,7 21,6 18,4 17,0 26 14 46 25 WSW 1014,3 69 58 0,0
14.08.2019 12:00:00 17,3 9,4 20,7 17,7 16,8 29 15 39 21 WSW 1014,1 55 53 0,0
14.08.2019 11:00:00 17,1 9,4 20,7 16,9 16,7 26 14 35 19 WSW 1014,2 62 53 0,0
14.08.2019 10:00:00 15,5 9,5 15,5 16,4 16,7 23 12 31 17 W 1014,1 55 24 0,0
14.08.2019 09:00:00 15,9 9,3 17,3 15,9 16,7 21 11 29 16 W 1013,9 51 55 0,0
14.08.2019 08:00:00 14,2 9,0 12,8 15,6 16,8 19 10 29 16 WNW 1013,9 64 12 0,0
14.08.2019 07:00:00 14,1 8,6 11,4 15,6 17,0 22 12 31 17 W 1013,5 70 0 1,0
14.08.2019 06:00:00 13,3 8,9 11,1 15,9 17,1 17 9 24 13 W 1013,5 7 0 0,3

tt = temperature
td = dewpoint
tt 5cm = temperature 5cm
tt -5cm = temperature -5cm
tt -20cm = temperature -20cm
ff = wind speed
fx = gusts
dd = wind direction
ppp = reduced air pressure
vv = visibility
sd = sunshine duration
rr = precipitation

Next stations